GBA612 NZKT-NZAA

Flight info

Callsign GBA612
Flight time N/A
Altitude 6000
Route DCT PERAS G591 UKAPA UKAPA3B
Aircraft C208/L-SDFGR/C

Departure

Time 2026-05-07 22:50
Airport Kaitaia Airport (NZKT)

Arrival

Time N/A
Airport Auckland International Airport (NZAA)
Time Latitude Longitude Altitude Speed Heading
2026-05-07 22:39 -35.06656 173.28471 240 ft 0 kts 303°
2026-05-07 22:47 -35.06673 173.28465 237 ft 7 kts 178°
2026-05-07 22:47 -35.06731 173.28406 239 ft 14 kts 226°
2026-05-07 22:47 -35.06781 173.28412 241 ft 10 kts 143°
2026-05-07 22:47 -35.06868 173.28496 244 ft 17 kts 141°
2026-05-07 22:48 -35.06941 173.28562 246 ft 23 kts 142°
2026-05-07 22:48 -35.07053 173.28669 251 ft 18 kts 142°
2026-05-07 22:48 -35.07168 173.28777 255 ft 24 kts 142°
2026-05-07 22:48 -35.07297 173.28899 265 ft 22 kts 142°
2026-05-07 22:49 -35.07401 173.28989 271 ft 16 kts 154°
2026-05-07 22:49 -35.07426 173.29027 273 ft 5 kts 315°
2026-05-07 22:49 -35.07391 173.28990 271 ft 13 kts 322°
2026-05-07 22:49 -35.07186 173.28795 256 ft 64 kts 322°
2026-05-07 22:50 -35.06747 173.28369 349 ft 89 kts 332°
2026-05-07 22:50 -35.06217 173.27905 571 ft 97 kts 332°
2026-05-07 22:50 -35.05678 173.27414 876 ft 98 kts 342°
2026-05-07 22:50 -35.05040 173.27479 1077 ft 99 kts 33°
2026-05-07 22:51 -35.04849 173.28343 1310 ft 129 kts 94°
2026-05-07 22:51 -35.05467 173.29262 1497 ft 158 kts 142°
2026-05-07 22:51 -35.06456 173.29833 1781 ft 156 kts 153°
2026-05-07 22:51 -35.07530 173.30066 2080 ft 156 kts 175°
2026-05-07 22:52 -35.08602 173.30083 2405 ft 151 kts 179°
2026-05-07 22:52 -35.09645 173.30129 2667 ft 151 kts 161°
2026-05-07 22:52 -35.10482 173.30804 2852 ft 143 kts 115°
2026-05-07 22:52 -35.11203 173.31672 3044 ft 154 kts 140°
2026-05-07 22:53 -35.12141 173.32351 3250 ft 158 kts 141°
2026-05-07 22:53 -35.13079 173.33054 3508 ft 157 kts 141°
2026-05-07 22:53 -35.14003 173.33744 3797 ft 154 kts 141°
2026-05-07 22:53 -35.14906 173.34420 4089 ft 151 kts 141°
2026-05-07 22:54 -35.15792 173.35083 4381 ft 148 kts 141°
2026-05-07 22:54 -35.16666 173.35734 4678 ft 147 kts 141°
2026-05-07 22:54 -35.17526 173.36376 4965 ft 144 kts 142°
2026-05-07 22:54 -35.18375 173.37011 5253 ft 143 kts 142°
2026-05-07 22:55 -35.19214 173.37639 5549 ft 143 kts 143°
2026-05-07 22:55 -35.20070 173.38269 5823 ft 142 kts 144°
2026-05-07 22:55 -35.20903 173.38900 5931 ft 149 kts 142°
2026-05-07 22:55 -35.21841 173.39622 5940 ft 170 kts 143°
2026-05-07 22:56 -35.22903 173.40393 5944 ft 183 kts 146°
2026-05-07 22:56 -35.24027 173.41210 5946 ft 191 kts 146°
2026-05-07 22:56 -35.25167 173.42068 5942 ft 191 kts 144°
2026-05-07 22:56 -35.26300 173.42922 5932 ft 192 kts 144°
2026-05-07 22:57 -35.27442 173.43775 5927 ft 194 kts 144°
2026-05-07 22:57 -35.28593 173.44643 5929 ft 195 kts 145°
2026-05-07 22:57 -35.29755 173.45506 5931 ft 195 kts 146°
2026-05-07 22:57 -35.30911 173.46368 5934 ft 194 kts 145°
2026-05-07 22:58 -35.32065 173.47238 5935 ft 196 kts 145°
2026-05-07 22:58 -35.33218 173.48108 5933 ft 197 kts 145°
2026-05-07 22:58 -35.34388 173.48984 5930 ft 196 kts 145°
2026-05-07 22:58 -35.35552 173.49849 5929 ft 195 kts 145°
2026-05-07 22:59 -35.36712 173.50723 5931 ft 197 kts 145°
2026-05-07 22:59 -35.37878 173.51601 5926 ft 197 kts 145°
2026-05-07 22:59 -35.39048 173.52480 5925 ft 197 kts 145°
2026-05-07 22:59 -35.40217 173.53359 5923 ft 197 kts 145°
2026-05-07 23:00 -35.41390 173.54244 5918 ft 198 kts 143°
2026-05-07 23:00 -35.42567 173.55124 5917 ft 198 kts 144°
2026-05-07 23:00 -35.43735 173.56006 5922 ft 197 kts 144°
2026-05-07 23:00 -35.44904 173.56884 5921 ft 197 kts 144°
2026-05-07 23:01 -35.46071 173.57771 5922 ft 198 kts 143°
2026-05-07 23:01 -35.47230 173.58681 5916 ft 197 kts 143°
2026-05-07 23:01 -35.48383 173.59591 5916 ft 197 kts 142°
2026-05-07 23:01 -35.49534 173.60500 5912 ft 196 kts 143°
2026-05-07 23:02 -35.50693 173.61404 5929 ft 198 kts 143°
2026-05-07 23:02 -35.51842 173.62302 5932 ft 199 kts 143°
2026-05-07 23:02 -35.53021 173.63225 5926 ft 201 kts 142°
2026-05-07 23:02 -35.54197 173.64148 5933 ft 201 kts 143°
2026-05-07 23:03 -35.55380 173.65061 5929 ft 200 kts 143°
2026-05-07 23:03 -35.56542 173.65984 5928 ft 198 kts 142°
2026-05-07 23:03 -35.57701 173.66903 5922 ft 198 kts 143°
2026-05-07 23:03 -35.58868 173.67810 5919 ft 197 kts 143°
2026-05-07 23:04 -35.60018 173.68707 5928 ft 195 kts 143°
2026-05-07 23:04 -35.61142 173.69594 5935 ft 195 kts 144°
2026-05-07 23:04 -35.62290 173.70498 5930 ft 197 kts 144°
2026-05-07 23:04 -35.63444 173.71402 5930 ft 196 kts 145°
2026-05-07 23:05 -35.64587 173.72299 5931 ft 196 kts 144°
2026-05-07 23:05 -35.65744 173.73212 5936 ft 198 kts 144°
2026-05-07 23:05 -35.66915 173.74124 5930 ft 200 kts 145°
2026-05-07 23:05 -35.68084 173.75039 5922 ft 198 kts 143°
2026-05-07 23:06 -35.69240 173.75955 5924 ft 200 kts 144°
2026-05-07 23:06 -35.70409 173.76892 5921 ft 199 kts 144°
2026-05-07 23:06 -35.71577 173.77808 5927 ft 197 kts 144°
2026-05-07 23:06 -35.72725 173.78701 5926 ft 198 kts 144°
2026-05-07 23:07 -35.73880 173.79613 5933 ft 197 kts 144°
2026-05-07 23:07 -35.75043 173.80528 5934 ft 198 kts 144°
2026-05-07 23:07 -35.76204 173.81450 5926 ft 198 kts 144°
2026-05-07 23:07 -35.77362 173.82363 5920 ft 196 kts 144°
2026-05-07 23:08 -35.78507 173.83261 5928 ft 195 kts 144°
2026-05-07 23:08 -35.79635 173.84157 5929 ft 196 kts 144°
2026-05-07 23:08 -35.80789 173.85069 5926 ft 196 kts 144°
2026-05-07 23:08 -35.81939 173.85976 5929 ft 197 kts 144°
2026-05-07 23:09 -35.83093 173.86885 5926 ft 196 kts 144°
2026-05-07 23:09 -35.84249 173.87799 5923 ft 197 kts 144°
2026-05-07 23:09 -35.85388 173.88702 5925 ft 197 kts 144°
2026-05-07 23:09 -35.86539 173.89616 5924 ft 196 kts 145°
2026-05-07 23:10 -35.87692 173.90522 5927 ft 197 kts 144°
2026-05-07 23:10 -35.88845 173.91434 5926 ft 197 kts 143°
2026-05-07 23:10 -35.90000 173.92352 5926 ft 197 kts 143°
2026-05-07 23:10 -35.91157 173.93269 5924 ft 197 kts 144°
2026-05-07 23:11 -35.92313 173.94185 5926 ft 197 kts 143°
2026-05-07 23:11 -35.93450 173.95087 5923 ft 197 kts 143°
2026-05-07 23:11 -35.94600 173.95998 5924 ft 196 kts 143°
2026-05-07 23:11 -35.95753 173.96911 5925 ft 197 kts 143°
2026-05-07 23:12 -35.96903 173.97823 5930 ft 196 kts 143°
2026-05-07 23:12 -35.98051 173.98737 5931 ft 196 kts 143°
2026-05-07 23:12 -35.99203 173.99651 5932 ft 197 kts 143°
2026-05-07 23:12 -36.00352 174.00563 5932 ft 196 kts 144°
2026-05-07 23:13 -36.01504 174.01475 5930 ft 197 kts 143°
2026-05-07 23:13 -36.02660 174.02399 5931 ft 198 kts 143°
2026-05-07 23:13 -36.03821 174.03323 5933 ft 199 kts 144°
2026-05-07 23:13 -36.04970 174.04235 5933 ft 198 kts 143°
2026-05-07 23:14 -36.06131 174.05158 5935 ft 198 kts 143°
2026-05-07 23:14 -36.07290 174.06080 5932 ft 198 kts 143°
2026-05-07 23:14 -36.08446 174.07003 5941 ft 197 kts 143°
2026-05-07 23:14 -36.09604 174.07926 5935 ft 198 kts 143°
2026-05-07 23:15 -36.10764 174.08851 5943 ft 198 kts 144°
2026-05-07 23:15 -36.11908 174.09760 5939 ft 197 kts 144°
2026-05-07 23:15 -36.13060 174.10681 5942 ft 197 kts 143°
2026-05-07 23:15 -36.14222 174.11608 5940 ft 198 kts 144°
2026-05-07 23:16 -36.15375 174.12528 5946 ft 198 kts 144°
2026-05-07 23:16 -36.16543 174.13461 5939 ft 198 kts 144°
2026-05-07 23:16 -36.17701 174.14391 5939 ft 199 kts 144°
2026-05-07 23:16 -36.18867 174.15310 5942 ft 198 kts 144°
2026-05-07 23:17 -36.20026 174.16236 5939 ft 198 kts 143°
2026-05-07 23:17 -36.21181 174.17170 5936 ft 198 kts 144°
2026-05-07 23:17 -36.22339 174.18097 5935 ft 198 kts 143°
2026-05-07 23:17 -36.23498 174.19025 5931 ft 198 kts 143°
2026-05-07 23:18 -36.24653 174.19943 5932 ft 197 kts 143°
2026-05-07 23:18 -36.25806 174.20865 5937 ft 197 kts 143°
2026-05-07 23:18 -36.26957 174.21789 5944 ft 197 kts 144°
2026-05-07 23:18 -36.28098 174.22703 5944 ft 197 kts 143°
2026-05-07 23:19 -36.29252 174.23627 5945 ft 198 kts 145°
2026-05-07 23:19 -36.30535 174.24252 5940 ft 199 kts 165°
2026-05-07 23:19 -36.31871 174.24721 5935 ft 199 kts 162°
2026-05-07 23:19 -36.33199 174.25225 5937 ft 199 kts 162°
2026-05-07 23:20 -36.34522 174.25722 5940 ft 199 kts 162°
2026-05-07 23:20 -36.35849 174.26216 5941 ft 199 kts 163°
2026-05-07 23:20 -36.37175 174.26714 5948 ft 198 kts 162°
2026-05-07 23:20 -36.38483 174.27200 5947 ft 199 kts 163°
2026-05-07 23:21 -36.39810 174.27691 5947 ft 199 kts 163°
2026-05-07 23:21 -36.41138 174.28187 5944 ft 199 kts 163°
2026-05-07 23:21 -36.42464 174.28682 5942 ft 199 kts 163°
2026-05-07 23:21 -36.43789 174.29173 5925 ft 198 kts 163°
2026-05-07 23:22 -36.45106 174.29667 5930 ft 198 kts 162°
2026-05-07 23:22 -36.46424 174.30161 5925 ft 198 kts 163°
2026-05-07 23:22 -36.47745 174.30654 5929 ft 198 kts 163°
2026-05-07 23:22 -36.49067 174.31149 5930 ft 198 kts 162°
2026-05-07 23:23 -36.50389 174.31643 5928 ft 199 kts 162°
2026-05-07 23:23 -36.51715 174.32138 5924 ft 199 kts 163°
2026-05-07 23:23 -36.53019 174.32627 5921 ft 198 kts 163°
2026-05-07 23:23 -36.54340 174.33122 5925 ft 199 kts 163°
2026-05-07 23:24 -36.55667 174.33619 5923 ft 199 kts 163°
2026-05-07 23:24 -36.56992 174.34115 5925 ft 199 kts 162°
2026-05-07 23:24 -36.58317 174.34611 5926 ft 198 kts 163°
2026-05-07 23:24 -36.59639 174.35107 5921 ft 198 kts 163°
2026-05-07 23:25 -36.60966 174.35605 5929 ft 199 kts 163°
2026-05-07 23:25 -36.62287 174.36100 5928 ft 199 kts 163°
2026-05-07 23:25 -36.63609 174.36590 5939 ft 198 kts 163°
2026-05-07 23:25 -36.64912 174.37085 5936 ft 199 kts 163°
2026-05-07 23:26 -36.66237 174.37587 5939 ft 198 kts 163°
2026-05-07 23:26 -36.67561 174.38085 5942 ft 199 kts 163°
2026-05-07 23:26 -36.68886 174.38575 5940 ft 199 kts 163°
2026-05-07 23:26 -36.70211 174.39074 5941 ft 199 kts 162°
2026-05-07 23:27 -36.72863 174.40073 5935 ft 198 kts 163°
2026-05-07 23:27 -36.74186 174.40571 5940 ft 199 kts 162°
2026-05-07 23:27 -36.75514 174.41073 5936 ft 199 kts 163°
2026-05-07 23:28 -36.76841 174.41571 5941 ft 198 kts 163°
2026-05-07 23:28 -36.78149 174.42065 5941 ft 199 kts 163°
2026-05-07 23:28 -36.79478 174.42565 5941 ft 200 kts 163°
2026-05-07 23:28 -36.80803 174.43065 5944 ft 198 kts 163°
2026-05-07 23:29 -36.82131 174.43566 5935 ft 200 kts 164°
2026-05-07 23:29 -36.83470 174.44071 5933 ft 200 kts 163°
2026-05-07 23:29 -36.84801 174.44576 5945 ft 200 kts 163°
2026-05-07 23:29 -36.86127 174.45074 5940 ft 199 kts 163°
2026-05-07 23:30 -36.87455 174.45575 5947 ft 200 kts 163°
2026-05-07 23:30 -36.88785 174.46080 5952 ft 200 kts 163°
2026-05-07 23:30 -36.90102 174.46580 5955 ft 200 kts 163°
2026-05-07 23:30 -36.91433 174.47083 5954 ft 199 kts 163°
2026-05-07 23:31 -36.92770 174.47582 5944 ft 201 kts 163°
2026-05-07 23:31 -36.94082 174.48049 5927 ft 190 kts 167°
2026-05-07 23:31 -36.95348 174.48550 5952 ft 193 kts 160°
2026-05-07 23:31 -36.96639 174.49070 5949 ft 197 kts 164°
2026-05-07 23:32 -36.97957 174.49530 5951 ft 198 kts 165°
2026-05-07 23:32 -36.99269 174.50038 5956 ft 197 kts 161°
2026-05-07 23:32 -37.00579 174.50574 5961 ft 199 kts 161°
2026-05-07 23:32 -37.01915 174.51141 5939 ft 204 kts 156°
2026-05-07 23:33 -37.03228 174.51779 5959 ft 202 kts 158°
2026-05-07 23:33 -37.04589 174.52340 5960 ft 209 kts 164°
2026-05-07 23:33 -37.05959 174.52858 5964 ft 208 kts 162°
2026-05-07 23:33 -37.07336 174.53423 5970 ft 208 kts 164°
2026-05-07 23:34 -37.08711 174.53997 5951 ft 207 kts 147°
2026-05-07 23:34 -37.09673 174.55221 5957 ft 194 kts 110°
2026-05-07 23:34 -37.09879 174.56801 5948 ft 178 kts 69°
2026-05-07 23:34 -37.09273 174.57976 5956 ft 153 kts 25°
2026-05-07 23:35 -37.08335 174.58569 5959 ft 151 kts 21°
2026-05-07 23:35 -37.07439 174.59281 5948 ft 153 kts 28°
2026-05-07 23:35 -37.06657 174.60161 5962 ft 153 kts 37°
2026-05-07 23:35 -37.06020 174.61273 5963 ft 163 kts 52°
2026-05-07 23:36 -37.05722 174.62151 5965 ft 167 kts 60°
2026-05-07 23:36 -37.05356 174.63538 5966 ft 169 kts 62°
2026-05-07 23:36 -37.04988 174.64935 5964 ft 168 kts 60°
2026-05-07 23:36 -37.04608 174.66310 5963 ft 167 kts 60°
2026-05-07 23:37 -37.04224 174.67671 5934 ft 165 kts 61°
2026-05-07 23:37 -37.03732 174.69463 5934 ft 164 kts 61°
2026-05-07 23:37 -37.03481 174.70377 5932 ft 164 kts 62°
2026-05-07 23:37 -37.03108 174.71732 5933 ft 165 kts 61°
2026-05-07 23:38 -37.02735 174.73083 5934 ft 164 kts 61°
2026-05-07 23:38 -37.02367 174.74419 5938 ft 164 kts 61°
2026-05-07 23:38 -37.01994 174.75767 5937 ft 164 kts 61°
2026-05-07 23:38 -37.01619 174.77126 5940 ft 164 kts 61°
2026-05-07 23:39 -37.01245 174.78480 5939 ft 165 kts 61°
2026-05-07 23:39 -37.00868 174.79808 5936 ft 161 kts 57°
2026-05-07 23:39 -37.00132 174.80710 5935 ft 144 kts 14°
2026-05-07 23:39 -36.99184 174.80601 5943 ft 140 kts 336°
2026-05-07 23:40 -36.98397 174.79876 5946 ft 145 kts 315°
2026-05-07 23:40 -36.97989 174.78693 5949 ft 157 kts 285°
2026-05-07 23:40 -36.98099 174.77295 5953 ft 165 kts 270°
2026-05-07 23:40 -36.98278 174.75882 5952 ft 164 kts 272°
2026-05-07 23:41 -36.98398 174.74467 5948 ft 164 kts 274°
2026-05-07 23:41 -36.98504 174.73051 5948 ft 163 kts 274°
2026-05-07 23:41 -36.98606 174.71646 5944 ft 162 kts 274°
2026-05-07 23:41 -36.98709 174.70242 5947 ft 162 kts 275°
2026-05-07 23:42 -36.98812 174.68833 5950 ft 163 kts 274°
2026-05-07 23:42 -36.98914 174.67422 5951 ft 163 kts 275°
2026-05-07 23:42 -36.99016 174.66028 5948 ft 162 kts 275°
2026-05-07 23:42 -36.99119 174.64642 5949 ft 160 kts 275°
2026-05-07 23:43 -36.99219 174.63264 5947 ft 158 kts 275°
2026-05-07 23:43 -36.99318 174.61889 5946 ft 158 kts 275°
2026-05-07 23:43 -36.99417 174.60519 5947 ft 158 kts 275°
2026-05-07 23:43 -36.99515 174.59156 5946 ft 158 kts 275°
2026-05-07 23:44 -36.99614 174.57778 5951 ft 159 kts 275°
2026-05-07 23:44 -36.99715 174.56393 5942 ft 159 kts 275°
2026-05-07 23:44 -36.99814 174.55069 5944 ft 144 kts 277°
2026-05-07 23:44 -36.99891 174.53824 5949 ft 146 kts 277°
2026-05-07 23:45 -37.00119 174.52555 5611 ft 159 kts 253°
2026-05-07 23:45 -37.00900 174.51500 5211 ft 172 kts 223°
2026-05-07 23:45 -37.02066 174.51126 4813 ft 182 kts 175°
2026-05-07 23:45 -37.03228 174.51604 4424 ft 172 kts 154°
2026-05-07 23:46 -37.04336 174.52175 4045 ft 172 kts 154°
2026-05-07 23:46 -37.05467 174.52699 3668 ft 173 kts 156°
2026-05-07 23:46 -37.06466 174.53446 3283 ft 161 kts 125°
2026-05-07 23:46 -37.07057 174.54548 2950 ft 144 kts 98°
2026-05-07 23:47 -37.07206 174.55615 2930 ft 111 kts 70°